Humidity-temperature Sensor

Selected Measurement Type: Air Temperature

 
Air Temperature [°C]     6 entries per hour
Showing data from 7/12/2020 (00:00:00 Z) to 7/5/2020 (00:01:00 Z)
Previous Next [ Day | 3-Days | 7-Days ]
First Last
Prev [ Day | 3-Days | 7-Days ] Next
First Last

Start Time:     :
End Time:     :     
Time (in GMT) :00 :50 :40 :30 :20 :10
Previous Next [ Day | 3-Days | 7-Days ]
First Last
Prev [ Day | 3-Days | 7-Days ] Next
First Last


123 => good data
MM => data is determined as missing
-- => data not received/configured
Back to Top Back to Top
7/12/2020 00:00 to 23:10 23.12 23.16 23.29 23.27 23.21 23.30
7/11/2020 23:00 to 22:10 23.21 23.22 23.16 23.14 23.05 23.09
7/11/2020 22:00 to 21:10 23.07 23.06 23.09 23.15 23.07 23.03
7/11/2020 21:00 to 20:10 23.03 23.02 23.01 23.02 23.05 23.11
7/11/2020 20:00 to 19:10 23.02 23.01 23.01 23.04 22.94 22.85
7/11/2020 19:00 to 18:10 22.74 22.67 22.58 22.73 22.76 22.76
7/11/2020 18:00 to 17:10 22.71 22.66 22.64 22.73 22.63 22.64
7/11/2020 17:00 to 16:10 22.66 22.68 22.52 22.49 22.36 22.58
7/11/2020 16:00 to 15:10 22.64 22.60 22.54 22.60 22.67 22.67
7/11/2020 15:00 to 14:10 22.60 22.61 22.66 22.62 22.52 22.57
7/11/2020 14:00 to 13:10 22.51 22.49 22.47 22.42 22.44 22.47
7/11/2020 13:00 to 12:10 22.46 22.47 22.49 22.53 22.55 22.55
7/11/2020 12:00 to 11:10 22.55 22.50 22.51 22.51 22.56 22.55
7/11/2020 11:00 to 10:10 22.51 22.52 22.47 22.48 22.49 22.50
7/11/2020 10:00 to 9:10 22.49 22.51 22.50 22.51 22.57 22.60
7/11/2020 09:00 to 8:10 22.67 22.76 22.85 22.66 22.68 22.71
7/11/2020 08:00 to 7:10 22.78 22.79 22.84 22.89 22.80 22.90
7/11/2020 07:00 to 6:10 22.90 22.79 22.90 22.85 22.80 22.67
7/11/2020 06:00 to 5:10 22.73 22.60 22.51 22.56 22.59 22.54
7/11/2020 05:00 to 4:10 22.49 22.49 22.51 22.54 22.55 22.59
7/11/2020 04:00 to 3:10 22.59 22.62 22.62 22.65 22.71 22.69
7/11/2020 03:00 to 2:10 22.67 22.63 22.65 22.65 22.64 22.67
7/11/2020 02:00 to 1:10 -- -- -- -- -- --
7/11/2020 01:00 to 0:10 -- -- -- -- -- --
7/11/2020 00:00 to 23:10 23.22 23.26 23.27 23.32 23.29 23.22
7/10/2020 23:00 to 22:10 23.27 23.18 23.12 23.06 23.07 23.04
7/10/2020 22:00 to 21:10 -- -- -- -- -- --
7/10/2020 21:00 to 20:10 -- -- -- -- -- --
7/10/2020 20:00 to 19:10 -- -- -- -- -- --
7/10/2020 19:00 to 18:10 -- -- -- -- -- --
7/10/2020 18:00 to 17:10 -- -- -- -- -- --
7/10/2020 17:00 to 16:10 -- -- -- -- -- --
7/10/2020 16:00 to 15:10 -- -- -- -- -- --
7/10/2020 15:00 to 14:10 -- -- -- -- -- --
7/10/2020 14:00 to 13:10 -- -- -- -- -- --
7/10/2020 13:00 to 12:10 -- -- -- -- -- --
7/10/2020 12:00 to 11:10 -- -- -- -- -- --
7/10/2020 11:00 to 10:10 -- -- -- -- -- --
7/10/2020 10:00 to 9:10 -- -- -- -- -- --
7/10/2020 09:00 to 8:10 -- -- -- -- -- --
7/10/2020 08:00 to 7:10 -- -- -- -- -- --
7/10/2020 07:00 to 6:10 -- -- -- -- -- --
7/10/2020 06:00 to 5:10 -- -- -- -- -- --
7/10/2020 05:00 to 4:10 -- -- -- -- -- --
7/10/2020 04:00 to 3:10 -- -- -- -- -- --
7/10/2020 03:00 to 2:10 -- -- -- -- -- --
7/10/2020 02:00 to 1:10 -- -- -- -- -- --
7/10/2020 01:00 to 0:10 -- -- -- -- -- --
7/10/2020 00:00 to 23:10 -- -- -- -- -- --
7/9/2020 23:00 to 22:10 -- -- -- -- -- --
7/9/2020 22:00 to 21:10 -- -- -- -- -- --
7/9/2020 21:00 to 20:10 -- -- -- -- -- --
7/9/2020 20:00 to 19:10 -- -- -- -- -- --
7/9/2020 19:00 to 18:10 -- -- -- -- -- --
7/9/2020 18:00 to 17:10 -- -- -- -- -- --
7/9/2020 17:00 to 16:10 -- -- -- -- -- --
7/9/2020 16:00 to 15:10 -- -- -- -- -- --
7/9/2020 15:00 to 14:10 -- -- -- -- -- --
7/9/2020 14:00 to 13:10 22.02 22.10 21.98 22.13 22.00 21.98
7/9/2020 13:00 to 12:10 21.95 21.95 22.04 21.98 21.99 22.00
7/9/2020 12:00 to 11:10 22.06 21.98 22.02 22.07 22.06 22.06
7/9/2020 11:00 to 10:10 22.08 21.95 21.96 21.84 21.96 21.92
7/9/2020 10:00 to 9:10 21.93 21.94 21.96 22.05 22.03 22.00
7/9/2020 09:00 to 8:10 22.05 22.10 22.05 22.06 22.08 22.12
7/9/2020 08:00 to 7:10 22.06 22.10 22.08 22.15 22.18 22.10
7/9/2020 07:00 to 6:10 22.26 22.16 22.14 22.20 22.22 22.29
7/9/2020 06:00 to 5:10 22.25 22.32 22.38 22.28 22.44 22.44
7/9/2020 05:00 to 4:10 -- -- -- -- -- --
7/9/2020 04:00 to 3:10 22.49 22.58 22.51 22.52 22.55 22.48
7/9/2020 03:00 to 2:10 22.44 22.57 22.49 22.69 22.53 22.54
7/9/2020 02:00 to 1:10 22.56 22.58 22.56 22.58 22.65 22.73
7/9/2020 01:00 to 0:10 22.76 22.79 22.87 22.80 22.79 22.73
7/9/2020 00:00 to 23:10 -- -- -- -- -- --
7/8/2020 23:00 to 22:10 22.76 22.68 22.72 22.78 22.69 22.47
7/8/2020 22:00 to 21:10 22.25 22.12 21.98 22.07 22.09 21.99
7/8/2020 21:00 to 20:10 -- -- -- -- -- --
7/8/2020 20:00 to 19:10 -- -- -- -- -- --
7/8/2020 19:00 to 18:10 22.76 22.86 22.82 22.72 22.81 22.83
7/8/2020 18:00 to 17:10 -- -- -- -- -- --
7/8/2020 17:00 to 16:10 22.71 22.68 22.67 22.65 22.62 22.56
7/8/2020 16:00 to 15:10 -- -- -- -- -- --
7/8/2020 15:00 to 14:10 -- -- -- -- -- --
7/8/2020 14:00 to 13:10 22.34 22.42 22.45 22.40 22.47 22.49
7/8/2020 13:00 to 12:10 -- -- -- -- -- --
7/8/2020 12:00 to 11:10 -- -- -- -- -- --
7/8/2020 11:00 to 10:10 -- -- -- -- -- --
7/8/2020 10:00 to 9:10 -- -- -- -- -- --
7/8/2020 09:00 to 8:10 22.52 22.61 22.58 22.60 22.64 22.72
7/8/2020 08:00 to 7:10 22.70 22.78 22.76 22.66 22.72 22.78
7/8/2020 07:00 to 6:10 -- -- -- -- -- --
7/8/2020 06:00 to 5:10 22.73 22.80 22.66 22.78 22.77 22.87
7/8/2020 05:00 to 4:10 22.91 22.87 22.85 22.86 22.87 22.86
7/8/2020 04:00 to 3:10 22.86 22.87 22.86 22.86 22.87 22.87
7/8/2020 03:00 to 2:10 -- -- -- -- -- --
7/8/2020 02:00 to 1:10 -- -- -- -- -- --
7/8/2020 01:00 to 0:10 -- -- -- -- -- --
7/8/2020 00:00 to 23:10 -- -- -- -- -- --
7/7/2020 23:00 to 22:10 -- -- -- -- -- --
7/7/2020 22:00 to 21:10 23.28 23.33 23.32 23.38 23.41 23.49
7/7/2020 21:00 to 20:10 -- -- -- -- -- --
7/7/2020 20:00 to 19:10 22.92 23.26 23.21 23.14 23.00 23.00
7/7/2020 19:00 to 18:10 -- -- -- -- -- --
7/7/2020 18:00 to 17:10 -- -- -- -- -- --
7/7/2020 17:00 to 16:10 22.87 22.83 22.79 22.86 22.87 22.84
7/7/2020 16:00 to 15:10 -- -- -- -- -- --
7/7/2020 15:00 to 14:10 -- -- -- -- -- --
7/7/2020 14:00 to 13:10 22.77 22.77 22.87 22.88 22.89 22.85
7/7/2020 13:00 to 12:10 22.79 22.82 22.84 22.86 22.81 22.77
7/7/2020 12:00 to 11:10 22.77 22.72 22.72 22.73 22.72 22.77
7/7/2020 11:00 to 10:10 22.75 22.71 22.72 22.75 22.74 22.77
7/7/2020 10:00 to 9:10 22.65 22.71 22.70 22.74 22.74 22.75
7/7/2020 09:00 to 8:10 22.77 22.76 22.79 22.80 22.83 22.85
7/7/2020 08:00 to 7:10 22.87 22.89 22.91 22.90 22.94 22.93
7/7/2020 07:00 to 6:10 22.96 22.96 22.98 22.99 23.00 23.03
7/7/2020 06:00 to 5:10 23.01 23.03 23.04 23.03 23.05 23.04
7/7/2020 05:00 to 4:10 23.05 23.05 23.04 23.04 23.07 23.06
7/7/2020 04:00 to 3:10 23.07 23.09 23.08 23.07 23.08 23.10
7/7/2020 03:00 to 2:10 23.15 23.13 23.16 23.18 23.22 23.19
7/7/2020 02:00 to 1:10 23.23 23.22 23.23 23.25 23.28 23.36
7/7/2020 01:00 to 0:10 23.44 23.47 23.50 23.50 23.55 23.55
7/7/2020 00:00 to 23:10 23.57 23.54 23.57 23.56 23.55 23.53
7/6/2020 23:00 to 22:10 23.51 23.50 23.50 23.48 23.47 23.47
7/6/2020 22:00 to 21:10 23.46 23.52 23.45 23.48 23.47 23.44
7/6/2020 21:00 to 20:10 23.38 23.42 23.39 23.37 23.34 23.31
7/6/2020 20:00 to 19:10 23.31 23.34 23.41 23.31 23.32 23.25
7/6/2020 19:00 to 18:10 23.30 23.24 23.23 23.21 23.21 23.18
7/6/2020 18:00 to 17:10 23.13 23.13 23.09 23.11 23.14 23.08
7/6/2020 17:00 to 16:10 23.09 23.07 23.08 23.06 23.06 23.03
7/6/2020 16:00 to 15:10 23.09 23.10 23.10 23.14 23.11 23.13
7/6/2020 15:00 to 14:10 23.17 23.18 23.19 23.18 23.16 23.15
7/6/2020 14:00 to 13:10 23.11 22.97 22.94 22.89 22.91 22.94
7/6/2020 13:00 to 12:10 22.94 22.94 22.88 22.90 22.94 22.94
7/6/2020 12:00 to 11:10 22.96 22.97 23.01 22.99 23.00 23.02
7/6/2020 11:00 to 10:10 23.01 22.97 22.98 22.98 22.96 23.00
7/6/2020 10:00 to 9:10 22.97 22.97 22.81 22.64 22.51 22.30
7/6/2020 09:00 to 8:10 22.17 22.36 22.10 23.12 23.18 23.21
7/6/2020 08:00 to 7:10 23.24 23.33 23.34 23.39 23.42 23.44
7/6/2020 07:00 to 6:10 23.47 23.49 23.48 23.53 23.52 23.51
7/6/2020 06:00 to 5:10 23.50 23.54 23.54 23.48 23.55 23.56
7/6/2020 05:00 to 4:10 23.57 23.55 23.55 23.58 23.58 23.62
7/6/2020 04:00 to 3:10 23.66 23.65 23.62 23.63 23.68 23.67
7/6/2020 03:00 to 2:10 23.78 23.65 23.65 23.64 23.64 23.71
7/6/2020 02:00 to 1:10 23.72 23.65 23.73 23.66 23.65 23.68
7/6/2020 01:00 to 0:10 23.62 23.62 23.63 23.64 23.65 23.69
7/6/2020 00:00 to 23:10 23.67 23.69 23.83 23.73 23.75 23.71
7/5/2020 23:00 to 22:10 23.67 23.64 23.64 23.59 23.55 23.50
7/5/2020 22:00 to 21:10 23.39 23.36 23.28 23.25 23.23 23.12
7/5/2020 21:00 to 20:10 23.09 23.11 23.12 23.05 23.05 23.05
7/5/2020 20:00 to 19:10 23.13 23.01 23.10 22.98 23.08 23.02
7/5/2020 19:00 to 18:10 23.05 22.93 22.94 22.93 22.89 22.85
7/5/2020 18:00 to 17:10 22.78 22.82 22.71 22.80 22.74 22.67
7/5/2020 17:00 to 16:10 22.77 22.61 22.61 22.64 22.61 22.56
7/5/2020 16:00 to 15:10 22.62 22.52 22.54 22.49 22.52 22.55
7/5/2020 15:00 to 14:10 22.49 22.53 22.54 22.52 22.39 22.43
7/5/2020 14:00 to 13:10 22.38 22.31 22.31 22.30 22.32 22.29
7/5/2020 13:00 to 12:10 22.35 22.33 22.29 22.33 22.33 22.36
7/5/2020 12:00 to 11:10 22.42 22.43 22.48 22.44 22.44 22.45
7/5/2020 11:00 to 10:10 22.55 22.53 22.52 22.52 22.52 22.40
7/5/2020 10:00 to 9:10 22.47 22.54 22.48 22.48 22.45 22.57
7/5/2020 09:00 to 8:10 22.50 22.47 22.53 22.54 22.51 22.52
7/5/2020 08:00 to 7:10 22.57 22.55 22.57 22.63 22.57 22.62
7/5/2020 07:00 to 6:10 22.64 22.57 22.59 22.67 22.63 22.70
7/5/2020 06:00 to 5:10 22.72 22.74 22.68 22.81 22.67 22.71
7/5/2020 05:00 to 4:10 22.66 22.67 22.73 22.59 22.66 22.66
7/5/2020 04:00 to 3:10 22.62 22.52 22.63 22.52 22.59 22.59
7/5/2020 03:00 to 2:10 -- -- -- -- -- --
7/5/2020 02:00 to 1:10 22.47 22.51 22.51 22.45 22.48 22.57
7/5/2020 01:00 to 0:10 22.56 22.59 22.74 22.64 22.74 22.73